EEL RIVER CAMP RAWS NEAR REDWAY 2NE HADS current weather conditions

sailwx.info

Wind from 216 at 5 knots gusting 11

Air temperature 25.0° C
Dewpoint 14.1° C

Last reported at 2017-Aug-21 22:28 UTC.
Time now 2017-Aug-21 23:38 UTC

Location: N 40°08' W 123°49'.
View on Google Maps.

See reports from other nearby stations

  
Tides and Currents Weather Stations Pressure Air Temp Water Temp Dewpoint Dewpoint Depression Visibility Wind Speed Wind Dir Waves Ship Positions
date/time (UTC)wind fromknots sea level pressurealtimeterstation pressurevisibilityair tempwater tempwave heightnotes
2017-Aug-21 22:28 216 5 gusting 11 25.0
2017-Aug-21 21:28 205 5 gusting 10 25.6
2017-Aug-21 20:28 180 5 gusting 9 24.4
2017-Aug-21 19:28 158 3 gusting 8 23.3
2017-Aug-21 18:28 160 1 gusting 6 21.1
2017-Aug-21 17:28 175 0 gusting 3 16.7
2017-Aug-21 16:28 216 0 gusting 4 17.2
2017-Aug-21 15:28 148 13.9
2017-Aug-21 14:28 324 10.6
2017-Aug-21 13:28 276 10.6
2017-Aug-21 12:28 320 11.1
2017-Aug-21 11:28 220 11.1
2017-Aug-21 10:28 242 11.7
2017-Aug-21 09:28 360 12.2
2017-Aug-21 08:28 333 1 gusting 2 12.8
2017-Aug-21 07:28 307 13.3
2017-Aug-21 06:28 280 0 gusting 1 14.4
2017-Aug-21 05:28 296 15.0
2017-Aug-21 04:28 206 0 gusting 3 17.8
2017-Aug-21 03:28 195 0 gusting 6 19.4
2017-Aug-21 02:28 190 0 gusting 9 21.7
2017-Aug-21 01:28 127 3 gusting 7 25.0
2017-Aug-21 00:28 157 4 gusting 13 26.7
2017-Aug-20 23:28 136 6 gusting 12 27.8
2017-Aug-20 22:28 152 5 gusting 13 30.0
2017-Aug-20 21:28 190 4 gusting 6 33.3
2017-Aug-20 20:28 133 2 gusting 6 31.7
2017-Aug-20 19:28 166 2 gusting 6 28.9
2017-Aug-20 18:28 094 0 gusting 4 25.6
2017-Aug-20 17:28 151 0 gusting 4 21.7
2017-Aug-20 16:28 140 0 gusting 2 18.3
2017-Aug-20 15:28 091 15.0
2017-Aug-20 14:28 279 11.1
2017-Aug-20 13:28 306 10.6
2017-Aug-20 12:28 301 11.1
2017-Aug-20 11:28 292 0 gusting 4 11.7
2017-Aug-20 10:28 352 11.7
2017-Aug-20 09:28 289 0 gusting 4 11.7
2017-Aug-20 08:28 297 12.2
2017-Aug-20 07:28 298 12.8
2017-Aug-20 06:28 297 1 gusting 7 13.9
2017-Aug-20 05:28 038 3 gusting 6 16.1
2017-Aug-20 04:28 031 1 gusting 11 17.2
2017-Aug-20 03:28 075 4 gusting 12 18.9
2017-Aug-20 02:28 083 4 gusting 12 21.1
2017-Aug-20 01:28 050 5 gusting 13 25.6
2017-Aug-20 00:28 040 5 gusting 13 27.8
2017-Aug-19 23:28 349 6 gusting 14 30.0